| time (UTC) | temp F | wind direction | speed knots | gust knots | rain 1hr in | rain 24hr in | rain mn in | humidity % | barometer mb |
| 20260505054557 | 59 | 48 | 18.2 | 25.2 | 0.00 | 0.00 | 0.00 | 52 | 1004.3 |
| 20260505054022 | 60 | 46 | 17.4 | 26.1 | 0.00 | 0.00 | 0.00 | 52 | 1004.3 |
| 20260505053520 | 60 | 49 | 17.4 | 26.1 | 0.00 | 0.00 | 0.00 | 51 | 1004.3 |
| 20260505053034 | 61 | 30 | 16.5 | 26.1 | 0.00 | 0.00 | 0.00 | 51 | 1004.6 |
| 20260505052521 | 61 | 40 | 16.5 | 22.6 | 0.00 | 0.00 | 0.00 | 51 | 1004.6 |
| 20260505052021 | 62 | 44 | 14.8 | 25.2 | 0.00 | 0.00 | 0.00 | 51 | 1004.8 |
| 20260505051542 | 62 | 22 | 13.9 | 25.2 | 0.00 | 0.00 | 0.00 | 51 | 1004.9 |
| 20260505051022 | 63 | 54 | 17.4 | 25.2 | 0.00 | 0.00 | 0.00 | 50 | 1004.8 |
| 20260505050523 | 63 | 31 | 13.9 | 21.7 | 0.00 | 0.00 | 0.00 | 50 | 1004.4 |
| 20260505041558 | 65 | 64 | 6.1 | 10.4 | 0.00 | 0.00 | 0.00 | 46 | 1002.9 |
| 20260505041023 | 66 | 55 | 7.0 | 10.4 | 0.00 | 0.00 | 0.00 | 45 | 1002.9 |
| 20260505040523 | 66 | 69 | 7.0 | 10.4 | 0.00 | 0.00 | 0.00 | 45 | 1002.7 |
| 20260505040045 | 67 | 69 | 6.1 | 12.2 | 0.00 | 0.00 | 0.00 | 44 | 1002.5 |
| 20260505035521 | 67 | 88 | 7.8 | 12.2 | 0.00 | 0.00 | 0.00 | 44 | 1002.5 |
| 20260505035021 | 67 | 61 | 6.1 | 10.4 | 0.00 | 0.00 | 0.00 | 43 | 1002.5 |
| 20260505034544 | 68 | 78 | 7.8 | 12.2 | 0.00 | 0.00 | 0.00 | 44 | 1002.5 |
| 20260505034026 | 68 | 94 | 7.0 | 12.2 | 0.00 | 0.00 | 0.00 | 43 | 1002.5 |
| 20260505033524 | 68 | 101 | 7.8 | 12.2 | 0.00 | 0.00 | 0.00 | 44 | 1002.3 |
| 20260505033037 | 67 | 103 | 6.1 | 10.4 | 0.00 | 0.00 | 0.00 | 44 | 1002.1 |
| 20260505032525 | 67 | 103 | 5.2 | 7.8 | 0.00 | 0.00 | 0.00 | 44 | 1002.2 |
| 20260505032026 | 67 | 98 | 4.3 | 9.6 | 0.00 | 0.00 | 0.00 | 43 | 1002.3 |
| 20260505031542 | 68 | 98 | 5.2 | 10.4 | 0.00 | 0.00 | 0.00 | 43 | 1002.4 |
| 20260505031023 | 68 | 102 | 7.0 | 10.4 | 0.00 | 0.00 | 0.00 | 42 | 1002.2 |
| 20260505030523 | 68 | 92 | 6.1 | 10.4 | 0.00 | 0.00 | 0.00 | 42 | 1002.0 |
| 20260505030042 | 68 | 84 | 7.0 | 10.4 | 0.00 | 0.00 | 0.00 | 42 | 1002.1 |
| 20260505025522 | 67 | 103 | 7.0 | 9.6 | 0.00 | 0.00 | 0.00 | 42 | 1002.2 |
| 20260505025021 | 67 | 103 | 6.1 | 8.7 | 0.00 | 0.00 | 0.00 | 42 | 1002.2 |
| 20260505024546 | 67 | 103 | 5.2 | 8.7 | 0.00 | 0.00 | 0.00 | 42 | 1002.2 |
| 20260505024023 | 67 | 103 | 5.2 | 8.7 | 0.00 | 0.00 | 0.00 | 42 | 1002.2 |
| 20260505023521 | 67 | 96 | 6.1 | 8.7 | 0.00 | 0.00 | 0.00 | 41 | 1002.0 |
| 20260505023046 | 67 | 88 | 5.2 | 7.8 | 0.00 | 0.00 | 0.00 | 40 | 1001.9 |
| 20260505022527 | 67 | 94 | 5.2 | 7.0 | 0.00 | 0.00 | 0.00 | 39 | 1002.1 |
| 20260505022024 | 67 | 96 | 4.3 | 7.0 | 0.00 | 0.00 | 0.00 | 38 | 1002.0 |
| 20260505021544 | 68 | 98 | 3.5 | 7.0 | 0.00 | 0.00 | 0.00 | 36 | 1002.0 |
| 20260505021023 | 69 | 98 | 4.3 | 8.7 | 0.00 | 0.00 | 0.00 | 36 | 1001.9 |
| 20260505020520 | 70 | 88 | 5.2 | 9.6 | 0.00 | 0.00 | 0.00 | 35 | 1001.8 |
| 20260505020039 | 70 | 93 | 6.1 | 9.6 | 0.00 | 0.00 | 0.00 | 34 | 1001.9 |
| 20260505015521 | 71 | 88 | 7.0 | 10.4 | 0.00 | 0.00 | 0.00 | 33 | 1001.9 |
| 20260505015026 | 72 | 86 | 7.0 | 11.3 | 0.00 | 0.00 | 0.00 | 31 | 1001.7 |
| 20260505014545 | 73 | 79 | 7.8 | 11.3 | 0.00 | 0.00 | 0.00 | 30 | 1001.6 |
| 20260505014021 | 73 | 67 | 7.8 | 11.3 | 0.00 | 0.00 | 0.00 | 30 | 1001.5 |
| 20260505013523 | 73 | 64 | 6.1 | 10.4 | 0.00 | 0.00 | 0.00 | 30 | 1001.3 |
| 20260505013127 | 73 | 61 | 6.1 | 11.3 | 0.00 | 0.00 | 0.00 | 30 | 1001.3 |
| 20260505013041 | 73 | 61 | 6.1 | 11.3 | 0.00 | 0.00 | 0.00 | 30 | 1001.3 |
| 20260505012521 | 74 | 59 | 5.2 | 11.3 | 0.00 | 0.00 | 0.00 | 29 | 1001.2 |
| 20260505012022 | 74 | 49 | 7.0 | 11.3 | 0.00 | 0.00 | 0.00 | 28 | 1001.1 |
| 20260505011542 | 75 | 53 | 6.1 | 10.4 | 0.00 | 0.00 | 0.00 | 28 | 1001.1 |
| 20260505011023 | 76 | 42 | 5.2 | 11.3 | 0.00 | 0.00 | 0.00 | 27 | 1001.2 |
| 20260505010522 | 76 | 61 | 5.2 | 11.3 | 0.00 | 0.00 | 0.00 | 26 | 1001.1 |
| 20260505010043 | 77 | 51 | 6.1 | 12.2 | 0.00 | 0.00 | 0.00 | 25 | 1001.3 |
| 20260505005521 | 78 | 76 | 7.8 | 12.2 | 0.00 | 0.00 | 0.00 | 25 | 1001.1 |
| 20260505005024 | 78 | 61 | 8.7 | 12.2 | 0.00 | 0.00 | 0.00 | 25 | 1001.2 |
| 20260505004536 | 79 | 55 | 7.0 | 11.3 | 0.00 | 0.00 | 0.00 | 24 | 1001.1 |
| 20260505004021 | 79 | 58 | 7.8 | 13.9 | 0.00 | 0.00 | 0.00 | 23 | 1001.1 |
| 20260505003527 | 80 | 66 | 7.0 | 13.9 | 0.00 | 0.00 | 0.00 | 23 | 1001.2 |
| 20260505003041 | 80 | 56 | 8.7 | 13.9 | 0.00 | 0.00 | 0.00 | 22 | 1001.0 |
| 20260505002524 | 80 | 69 | 7.0 | 12.2 | 0.00 | 0.00 | 0.00 | 22 | 1001.1 |
| 20260505002024 | 80 | 67 | 8.7 | 12.2 | 0.00 | 0.00 | 0.00 | 23 | 1001.1 |
| 20260505001549 | 80 | 71 | 7.0 | 12.2 | 0.00 | 0.00 | 0.00 | 23 | 1001.0 |
| 20260505001022 | 80 | 72 | 7.0 | 12.2 | 0.00 | 0.00 | 0.00 | 22 | 1001.2 |
| 20260505000521 | 80 | 58 | 8.7 | 15.6 | 0.00 | 0.00 | 0.00 | 22 | 1001.1 |
| 20260505000049 | 80 | 57 | 8.7 | 15.6 | 0.00 | 0.00 | 0.00 | 23 | 1001.2 |
| 20260504235523 | 80 | 63 | 7.8 | 13.9 | 0.00 | 0.00 | 0.00 | 22 | 1001.1 |
| 20260504235023 | 80 | 55 | 8.7 | 13.9 | 0.00 | 0.00 | 0.00 | 22 | 1001.1 |
| 20260504234546 | 81 | 59 | 8.7 | 13.0 | 0.00 | 0.00 | 0.00 | 21 | 1001.0 |
| 20260504234022 | 81 | 69 | 7.8 | 11.3 | 0.00 | 0.00 | 0.00 | 21 | 1001.2 |
| 20260504233521 | 81 | 74 | 5.2 | 12.2 | 0.00 | 0.00 | 0.00 | 20 | 1001.0 |
| 20260504233040 | 81 | 51 | 7.8 | 12.2 | 0.00 | 0.00 | 0.00 | 20 | 1001.2 |
| 20260504232522 | 81 | 73 | 7.8 | 13.9 | 0.00 | 0.00 | 0.00 | 20 | 1001.2 |
| 20260504232020 | 81 | 66 | 8.7 | 16.5 | 0.00 | 0.00 | 0.00 | 20 | 1001.2 |
| 20260504231556 | 81 | 78 | 10.4 | 16.5 | 0.00 | 0.00 | 0.00 | 20 | 1001.3 |
| 20260504231024 | 81 | 74 | 10.4 | 16.5 | 0.00 | 0.00 | 0.00 | 19 | 1001.2 |
| 20260504230520 | 81 | 69 | 7.0 | 13.9 | 0.00 | 0.00 | 0.00 | 19 | 1001.5 |
| 20260504230043 | 81 | 91 | 7.0 | 13.9 | 0.00 | 0.00 | 0.00 | 20 | 1001.5 |
| 20260504225521 | 83 | 87 | 6.1 | 10.4 | 0.00 | 0.00 | 0.00 | 21 | 1001.3 |
| 20260504225023 | 83 | 107 | 5.2 | 7.0 | 0.00 | 0.00 | 0.00 | 20 | 1001.5 |
| 20260504224541 | 83 | 110 | 3.5 | 6.1 | 0.00 | 0.00 | 0.00 | 17 | 1001.6 |
| 20260504224025 | 83 | 97 | 3.5 | 7.0 | 0.00 | 0.00 | 0.00 | 17 | 1001.5 |
| 20260504223525 | 83 | 107 | 3.5 | 7.8 | 0.00 | 0.00 | 0.00 | 19 | 1001.9 |
| 20260504223040 | 84 | 114 | 3.5 | 7.8 | 0.00 | 0.00 | 0.00 | 16 | 1001.7 |
| 20260504222521 | 84 | 118 | 4.3 | 7.8 | 0.00 | 0.00 | 0.00 | 15 | 1001.9 |
| 20260504222021 | 84 | 117 | 4.3 | 10.4 | 0.00 | 0.00 | 0.00 | 14 | 1001.9 |
| 20260504221543 | 84 | 151 | 5.2 | 10.4 | 0.00 | 0.00 | 0.00 | 14 | 1002.1 |
| 20260504221022 | 85 | 163 | 4.3 | 9.6 | 0.00 | 0.00 | 0.00 | 14 | 1001.9 |
| 20260504220521 | 85 | 171 | 3.5 | 8.7 | 0.00 | 0.00 | 0.00 | 14 | 1001.9 |
| 20260504220045 | 85 | 133 | 3.5 | 7.8 | 0.00 | 0.00 | 0.00 | 15 | 1001.8 |
| 20260504215521 | 85 | 161 | 3.5 | 7.8 | 0.00 | 0.00 | 0.00 | 13 | 1002.0 |
| 20260504215026 | 85 | 151 | 1.7 | 5.2 | 0.00 | 0.00 | 0.00 | 13 | 1002.0 |
| 20260504214543 | 86 | 151 | 2.6 | 5.2 | 0.00 | 0.00 | 0.00 | 13 | 1002.1 |
| 20260504214028 | 86 | 217 | 1.7 | 9.6 | 0.00 | 0.00 | 0.00 | 13 | 1002.2 |
| 20260504213522 | 86 | 241 | 2.6 | 10.4 | 0.00 | 0.00 | 0.00 | 13 | 1002.5 |
| 20260504213044 | 86 | 233 | 7.0 | 10.4 | 0.00 | 0.00 | 0.00 | 14 | 1002.5 |
| 20260504212522 | 86 | 188 | 5.2 | 8.7 | 0.00 | 0.00 | 0.00 | 13 | 1002.7 |
| 20260504212022 | 87 | 328 | 3.5 | 7.8 | 0.00 | 0.00 | 0.00 | 13 | 1002.6 |
| 20260504211548 | 86 | 140 | 1.7 | 10.4 | 0.00 | 0.00 | 0.00 | 13 | 1002.6 |
| 20260504211021 | 86 | 162 | 3.5 | 11.3 | 0.00 | 0.00 | 0.00 | 13 | 1002.5 |
| 20260504210521 | 86 | 199 | 6.1 | 13.9 | 0.00 | 0.00 | 0.00 | 13 | 1002.5 |
| 20260504210100 | 87 | 218 | 7.8 | 13.0 | 0.00 | 0.00 | 0.00 | 13 | 1002.7 |
| 20260504205520 | 87 | 193 | 5.2 | 12.2 | 0.00 | 0.00 | 0.00 | 13 | 1002.8 |
| 20260504205044 | 86 | 170 | 7.0 | 12.2 | 0.00 | 0.00 | 0.00 | 13 | 1002.8 |
| 20260504204548 | 86 | 155 | 3.5 | 10.4 | 0.00 | 0.00 | 0.00 | 13 | 1003.0 |
| 20260504204021 | 86 | 111 | 5.2 | 8.7 | 0.00 | 0.00 | 0.00 | 13 | 1003.1 |
| 20260504203523 | 86 | 69 | 2.6 | 8.7 | 0.00 | 0.00 | 0.00 | 13 | 1003.0 |
| 20260504203048 | 86 | 36 | 2.6 | 8.7 | 0.00 | 0.00 | 0.00 | 12 | 1003.2 |
| 20260504202522 | 86 | 13 | 4.3 | 8.7 | 0.00 | 0.00 | 0.00 | 13 | 1003.3 |
| 20260504202021 | 85 | 5 | 3.5 | 8.7 | 0.00 | 0.00 | 0.00 | 13 | 1003.4 |
| 20260504201548 | 86 | 272 | 4.3 | 11.3 | 0.00 | 0.00 | 0.00 | 13 | 1003.6 |
| 20260504201022 | 86 | 311 | 3.5 | 11.3 | 0.00 | 0.00 | 0.00 | 13 | 1003.8 |
| 20260504200521 | 86 | 232 | 6.1 | 11.3 | 0.00 | 0.00 | 0.00 | 13 | 1003.8 |
| 20260504200042 | 86 | 173 | 4.3 | 10.4 | 0.00 | 0.00 | 0.00 | 13 | 1003.9 |
| 20260504195521 | 86 | 105 | 3.5 | 10.4 | 0.00 | 0.00 | 0.00 | 13 | 1004.1 |
| 20260504195021 | 85 | 42 | 2.6 | 6.1 | 0.00 | 0.00 | 0.00 | 14 | 1003.9 |
| 20260504194559 | 86 | 107 | 3.5 | 7.8 | 0.00 | 0.00 | 0.00 | 14 | 1004.1 |
| 20260504194021 | 86 | 135 | 0.9 | 11.3 | 0.00 | 0.00 | 0.00 | 14 | 1004.2 |
| 20260504193521 | 86 | 138 | 4.3 | 13.9 | 0.00 | 0.00 | 0.00 | 14 | 1004.1 |
| 20260504193036 | 86 | 128 | 1.7 | 13.9 | 0.00 | 0.00 | 0.00 | 14 | 1004.3 |
| 20260504192521 | 86 | 85 | 7.0 | 13.9 | 0.00 | 0.00 | 0.00 | 13 | 1004.2 |
| 20260504192024 | 85 | 51 | 2.6 | 8.7 | 0.00 | 0.00 | 0.00 | 14 | 1004.3 |
| 20260504191547 | 85 | 80 | 2.6 | 8.7 | 0.00 | 0.00 | 0.00 | 14 | 1004.5 |
| 20260504191024 | 85 | 62 | 4.3 | 8.7 | 0.00 | 0.00 | 0.00 | 14 | 1004.4 |
| 20260504190523 | 85 | 5 | 4.3 | 7.8 | 0.00 | 0.00 | 0.00 | 14 | 1004.5 |
| 20260504190057 | 86 | 332 | 2.6 | 7.8 | 0.00 | 0.00 | 0.00 | 13 | 1004.6 |
| 20260504185525 | 86 | 333 | 1.7 | 8.7 | 0.00 | 0.00 | 0.00 | 14 | 1004.5 |
| 20260504185024 | 85 | 46 | 4.3 | 8.7 | 0.00 | 0.00 | 0.00 | 13 | 1004.7 |
| 20260504184555 | 85 | 338 | 4.3 | 7.8 | 0.00 | 0.00 | 0.00 | 14 | 1004.8 |
| 20260504184021 | 84 | 55 | 0.9 | 7.0 | 0.00 | 0.00 | 0.00 | 15 | 1005.0 |
| 20260504183526 | 84 | 346 | 3.5 | 7.0 | 0.00 | 0.00 | 0.00 | 16 | 1005.0 |
| 20260504183041 | 84 | 342 | 1.7 | 7.0 | 0.00 | 0.00 | 0.00 | 17 | 1005.3 |
| 20260504182521 | 84 | 294 | 2.6 | 7.0 | 0.00 | 0.00 | 0.00 | 17 | 1005.1 |
| 20260504182022 | 84 | 311 | 2.6 | 7.0 | 0.00 | 0.00 | 0.00 | 17 | 1005.2 |
| 20260504181543 | 83 | 0 | 1.7 | 7.8 | 0.00 | 0.00 | 0.00 | 18 | 1005.2 |
| 20260504181021 | 83 | 144 | 2.6 | 7.8 | 0.00 | 0.00 | 0.00 | 19 | 1005.4 |
| 20260504180522 | 82 | 215 | 1.7 | 7.0 | 0.00 | 0.00 | 0.00 | 19 | 1005.5 |
| 20260504180057 | 82 | 270 | 3.5 | 7.0 | 0.00 | 0.00 | 0.00 | 19 | 1005.6 |
| 20260504175520 | 82 | 284 | 2.6 | 5.2 | 0.00 | 0.00 | 0.00 | 19 | 1005.4 |
| 20260504175021 | 82 | 5 | 2.6 | 7.0 | 0.00 | 0.00 | 0.00 | 18 | 1005.6 |
| 20260504174545 | 82 | 315 | 2.6 | 7.8 | 0.00 | 0.00 | 0.00 | 19 | 1005.5 |
| 20260504174021 | 82 | 343 | 2.6 | 7.8 | 0.00 | 0.00 | 0.00 | 18 | 1005.6 |
| 20260504173523 | 82 | 337 | 1.7 | 6.1 | 0.00 | 0.00 | 0.00 | 20 | 1005.6 |
| 20260504173053 | 82 | 344 | 2.6 | 7.8 | 0.00 | 0.00 | 0.00 | 20 | 1005.8 |
| 20260504172522 | 81 | 267 | 2.6 | 9.6 | 0.00 | 0.00 | 0.00 | 21 | 1005.8 |
| 20260504172021 | 81 | 258 | 4.3 | 9.6 | 0.00 | 0.00 | 0.00 | 21 | 1005.8 |
| 20260504171542 | 81 | 267 | 4.3 | 10.4 | 0.00 | 0.00 | 0.00 | 21 | 1005.8 |
| 20260504171021 | 81 | 300 | 5.2 | 10.4 | 0.00 | 0.00 | 0.00 | 22 | 1005.7 |
| 20260504170523 | 81 | 332 | 4.3 | 8.7 | 0.00 | 0.00 | 0.00 | 22 | 1005.8 |
| 20260504151022 | 70 | 320 | 6.1 | 9.6 | 0.00 | 0.00 | 0.00 | 37 | 1005.5 |
| 20260504150520 | 69 | 336 | 5.2 | 8.7 | 0.00 | 0.00 | 0.00 | 38 | 1005.5 |
| 20260504141022 | 60 | 321 | 4.3 | 8.7 | 0.00 | 0.00 | 0.00 | 49 | 1005.6 |
| 20260504140524 | 59 | 323 | 4.3 | 8.7 | 0.00 | 0.00 | 0.00 | 50 | 1005.6 |
| 20260504130519 | 50 | 299 | 3.5 | 6.1 | 0.00 | 0.00 | 0.00 | 61 | 1005.7 |
| 20260504110523 | 50 | 225 | 2.6 | 3.5 | 0.00 | 0.00 | 0.00 | 57 | 1005.6 |
| 20260504100522 | 53 | 218 | 2.6 | 4.3 | 0.00 | 0.00 | 0.00 | 52 | 1005.3 |
| 20260504081542 | 50 | 215 | 2.6 | 5.2 | 0.00 | 0.00 | 0.00 | 50 | 1006.2 |
| 20260504081026 | 50 | 215 | 2.6 | 4.3 | 0.00 | 0.00 | 0.00 | 50 | 1006.1 |
| 20260504080522 | 50 | 215 | 1.7 | 4.3 | 0.00 | 0.00 | 0.00 | 49 | 1006.2 |